Regional Weather Roundup
Issued by NWS

Home | Current Version | Previous Version | Graphics & Text | Print | Product List | Glossary On
Versions: 1 2 3 4 5 6 7 8 9 10 11 12 13 14 15 16 17 18 19 20 21 22 23 24 25 26 27 28 29 30 31 32 33 34 35 36 37 38 39 40 41 42 43 44 45 46 47 48 49 50
000
ASUS43 KFSD 170810
RWRSD

WEATHER ROUNDUP FOR SOUTH DAKOTA
NATIONAL WEATHER SERVICE SIOUX FALLS SD
300 AM CDT TUE OCT 17 2017

NOTE: "FAIR" INDICATES FEW OR NO CLOUDS BELOW 12,000 FEET WITH NO
SIGNIFICANT WEATHER AND/OR OBSTRUCTIONS TO VISIBILITY.


SDZ001>005-009-010-012>017-170900-
NORTHWEST AND NORTH CENTRAL SOUTH DAKOTA

CITY           SKY/WX    TMP DP  RH WIND       PRES   REMARKS
BUFFALO          N/A     48  26  42 W10       29.97S
FAITH            N/A     45  29  53 SW9       30.03F
MOBRIDGE       CLEAR     37  32  82 E3        29.98F
$$

SDZ012>016-024>037-041>051-057-063-072>074-170900-
SOUTHWEST AND SOUTH CENTRAL SOUTH DAKOTA

CITY           SKY/WX    TMP DP  RH WIND       PRES   REMARKS
RAPID CTY ARPT CLEAR     44  27  51 W8        30.09S
PIERRE         CLEAR     45  36  70 SW3       30.02S
CUSTER         CLEAR     42  18  37 W3        30.20S
PHILIP         CLEAR     40  35  83 W10       30.05F
PINE RIDGE     CLEAR     31  29  92 NE3       30.13S
SPEARFISH      FAIR      46  25  42 CALM      30.11S
WINNER         FAIR      45  36  70 SW9       30.07R
$$

SDZ004>011-016>023-039-040-170900-
NORTHEAST SOUTH DAKOTA

CITY           SKY/WX    TMP DP  RH WIND       PRES   REMARKS
ABERDEEN       CLOUDY    33  32  96 S7        29.99S WCI  27
WATERTOWN      CLEAR     42  38  85 CALM      30.00R
BROOKINGS      CLEAR     44  39  82 CALM      30.02S
SISSETON         N/A     45  38  76 CALM      29.95S
$$

SDZ017-020-022-023-036>040-048>070-170900-
SOUTHEAST SOUTH DAKOTA

CITY           SKY/WX    TMP DP  RH WIND       PRES   REMARKS
SIOUX FALLS    CLEAR     41  39  93 CALM      30.03R
HURON          CLEAR     40  38  93 E6        30.02R
CHAMBERLAIN    CLEAR     46  41  83 W3        30.05S
MITCHELL       CLEAR     45  39  79 SW3       30.03R
YANKTON        CLEAR     43  38  82 N5        30.03R
$$

ABBREVIATIONS USED IN REMARKS
   TC - TEMPERATURE IN CELSIUS
  WCI - WIND CHILL INDEX
   HX - HEAT INDEX
  VSB - VISIBILITY





USA.gov is the U.S. government's official web portal to all federal, state and local government web resources and services.